Regional Weather Roundup
Issued by NWS Charleston, SC

Current Version | Previous Version | Graphics & Text | Print | Product List | Glossary On
Versions: 1 2 3 4 5 6 7 8 9 10 11 12 13 14 15 16 17 18 19 20 21 22 23 24 25 26 27 28 29 30 31 32 33 34 35 36 37 38 39 40 41 42 43 44 45 46 47 48 49 50
000 ASUS42 KCHS 202327 RWRCHS REGIONAL WEATHER ROUNDUP NATIONAL WEATHER SERVICE CHARLESTON SC 600 PM EST FRI JAN 20 2017 NOTE: "FAIR" INDICATES FEW OR NO CLOUDS BELOW 12,000 FEET WITH NO SIGNIFICANT WEATHER AND/OR OBSTRUCTIONS TO VISIBILITY. NOT ALL STATIONS ARE QUALITY CONTROLLED. USE DATA WITH CAUTION... ESPECIALLY DEWPOINT OBSERVATIONS. SCZ027-030-031-034>040-042>050-210000- ...SOUTHEAST SOUTH CAROLINA... CITY SKY/WX TMP DP RH WIND PRES REMARKS N CHARLESTON PTCLDY 68 58 70 SW5 29.86S WATERFRONT PRK N/A 71 61 70 VRB3 29.85R MOUNT PLEASANT FAIR 68 61 77 SW3 29.87S JOHNS ISLAND FAIR 64 61 88 S7 29.89R PINOPOLIS N/A 72 63 73 SW7 29.77R MONCKS CORNER FAIR 66 57 72 CALM 29.87R SUMMERVILLE FAIR 68 61 77 S3 29.88R BEAUFORT MCAS PTCLDY 67 61 81 S6 29.88R BEAUFORT ARPT FAIR 64 61 88 S3 29.88S HILTON HEAD IS CLEAR 64 61 88 S7 29.89R WALTERBORO CLEAR 64 59 82 S5 29.88R ALLENDALE FAIR 70 61 73 CALM 29.86R ...SOUTHERN MIDLANDS AND PEE DEE... CITY SKY/WX TMP DP RH WIND PRES REMARKS GEORGETOWN FAIR 64 61 88 SW3 29.87R KINGSTREE FAIR 68 55 64 CALM 29.85R ORANGEBURG CLEAR 67 58 72 S7 29.85R BARNWELL FAIR 70 61 73 CALM 29.86R AIKEN FAIR 63 54 72 S5 29.88R MANNING FAIR 64 55 72 CALM 29.85R COLUMBIA PTCLDY 71 55 56 S5 29.82R SUMTER CLEAR 67 53 61 S5 29.82R FLORENCE CLEAR 67 58 72 CALM 29.85R MYRTLE BEACH CLEAR 61 54 77 S8 29.86R N MYRTLE BEACH CLEAR 60 58 92 SW5 29.84S $$ GAZ063-065-086>088-099>101-113>116-118-119-134>141-150-210000- ...SOUTHEAST GEORGIA... CITY SKY/WX TMP DP RH WIND PRES REMARKS SAVANNAH ARPT PTCLDY 71 58 63 CALM 29.87S HUNTER AAF CLEAR 72 64 75 CALM 29.85R FORT STEWART CLEAR 71 62 72 CALM 29.85S STATESBORO MOCLDY 67 62 85 CALM 29.88R SYLVANIA CLEAR N/A N/A N/A CALM 29.89R CLAXTON FAIR N/A N/A N/A CALM 29.89R ...CSRA...CENTRAL AND FAR SOUTHEAST GEORGIA... CITY SKY/WX TMP DP RH WIND PRES REMARKS THOMSON CLEAR 68 59 74 CALM 29.89R AUGUSTA-BUSH CLEAR 74 55 51 SW8 29.84R AUGUSTA-DANIEL CLEAR 74 53 48 SW7 29.85R SWAINSBORO FAIR 68 61 77 CALM 29.89R VIDALIA CLOUDY 68 64 88 CALM 29.89R EASTMAN MOCLDY 68 55 62 CALM 29.90R HAZLEHURST FAIR 69 65 88 CALM 29.88R ALMA CLOUDY 71 65 81 CALM 29.87R WAYCROSS CLOUDY 77 68 74 W7 29.89R JESUP MOCLDY 70 63 78 CALM 29.89R BAXLEY CLOUDY 70 66 88 CALM 29.88R BRUNSWICK CLEAR 72 64 78 CALM 29.90R SAINT SIMONS CLEAR 68 61 78 SE7 29.88R $$ SCZ027-028-034-036>038-045-046-048>050-GAZ119-141-210000- ...LAKE AND SUPPLEMENTAL COASTAL OBSERVATIONS... STATION/POSITION TIME TEMP WIND PRES WAVE SWELL AIR SEA DIR/SP/G HT/PER HT/PER/DIR (UTC) (F) (DEG/KT/KT) (MB) (FT/S) (FT/S/D) WINYAH BAY 2245 66 210/ 2 1010.0S LAKE MURRAY 2250 63 190/ 5/ 6 1009.5R ACE BASIN NERRS 2245 66 CALM 1012.0R FORT PULASKI 2300 64 59 180/ 3/ 4 1011.9 SAPELO ISLAND 2300 69 150/ 5 1012.0 $$ ANZ835-935-AMZ111-154-330-350-352-354-370-450-454-472-210000- ...C-MAN AND BUOY OBSERVATIONS... STATION/POSITION TIME TEMP WIND PRES WAVE SWELL AIR SEA DIR/SP/G HT/PER HT/PER/DIR (UTC) (F) (DEG/KT/KT) (MB) (FT/S) (FT/S/D) BUOY 41004 2250 69 70 240/ 14/ 16 1011.3R 3/ 5 2/ 90/12 BUOY 41008 2250 63 61 150/ 6/ 8 1011.7R 2/ 5 2/140/ 5 FOLLY BEACH CMAN 2300 59 220/ 6/ 7 1012.3R CAPERS NEARSHORE 2308 58 56 220/ 8/ 12 1011.6R FRIPP NEARSHORE 2308 61 59 190/ 6/ 10 1011.7R STATION/POSITION TIME TEMP WIND PRES WAVE SWELL AIR SEA DIR/SP/G HT/PER HT/PER/DIR (UTC) (F) (DEG/KT/KT) (MB) (FT/S) (FT/S/D) 5E ST. MARYS GA 2300 65 N/A 2/10 FRYING PAN BUOY 2310 70 71 230/ 16/ 19 1011.0 BUOY 41025 2250 71 76 260/ 16/ 17 1010.2R 5/14 3/ 90/14 CAPE LOOKOUT NC 2300 65 220/ 6/ 8 1010.5R BUOY 41002 2250 71 70 180/ 4/ 6 1013.0S 6/11 5/ 10/11 BUOY 41010 NOT AVBL ST AUGUSTINE FL 2300 77 63 250/ 6/ 8 1013.5R $$

USA.gov is the U.S. government's official web portal to all federal, state and local government web resources and services.